Test XHTML 1.0 Strict Page for WU-History Testing
Histórico de la Estación METEOCORUÑA
 
Diario Datos del Marzo 25, 2019 Unidades:  Metrico    Inglés   Ambos
« Prev Dia
Sig Dia »
Diario Semanal Mensual Anual Rango
  Actual: Max: Min: Media:
Temp: -9.3 °C -17.8 °C -11.7 °C -10.4 °C
Rocío: -12.9 °C -17.8 °C -13.7 °C -13.2 °C
Humedad: 65 % Humidity % 54 % 72 %
Vel. viento: 23.3 km/h 0 km/h 2.6 km/h 16.7 km/h
Racha: 51.8 km/h 0 km/h - -
Viento:North - - North
Presión: 34604.9 hPa 0 hPa 34604.9 hPa -
Lluvia: 0 mm      
Historical Graphs
 
 
Busqueda de Marzo 25, 2019
Hora Temp Rocío Presión Viento Vel. viento Racha Humedad Ratio lluvia (/hora) Radiación
-17.8 °C -17.8 °C 0 hPa Calm     Humidity % 0 mm SoftwareType W/m2
00:00 -10.9 °C -13.4 °C 34689.6 hPa North 12.9 km/h 23.3 km/h 74 % 0 mm WeatherDisplay:10.37 W/m2
00:05 -10.9 °C -13.3 °C 34689.6 hPa North 7.7 km/h 23.3 km/h 75 % 0 mm WeatherDisplay:10.37 W/m2
00:10 -11 °C -13.4 °C 34689.6 hPa North 5.1 km/h 23.3 km/h 75 % 0 mm WeatherDisplay:10.37 W/m2
00:15 -11 °C -13.4 °C 34689.6 hPa North 15.6 km/h 25.9 km/h 75 % 0 mm WeatherDisplay:10.37 W/m2
00:20 -11 °C -13.4 °C 34689.6 hPa North 12.9 km/h 25.9 km/h 75 % 0 mm WeatherDisplay:10.37 W/m2
00:25 -11 °C -13.4 °C 34689.6 hPa North 7.7 km/h 20.8 km/h 75 % 0 mm WeatherDisplay:10.37 W/m2
00:30 -11 °C -13.4 °C 34693 hPa North 12.9 km/h 20.8 km/h 75 % 0 mm WeatherDisplay:10.37 W/m2
00:35 -11 °C -13.4 °C 34689.6 hPa North 12.9 km/h 25.9 km/h 75 % 0 mm WeatherDisplay:10.37 W/m2
00:40 -11.1 °C -13.6 °C 34693 hPa North 15.6 km/h 25.9 km/h 74 % 0 mm WeatherDisplay:10.37 W/m2
00:45 -11.1 °C -13.6 °C 34693 hPa North 12.9 km/h 31.1 km/h 74 % 0 mm WeatherDisplay:10.37 W/m2
00:50 -11.1 °C -13.6 °C 34693 hPa North 15.6 km/h 31.1 km/h 74 % 0 mm WeatherDisplay:10.37 W/m2
00:55 -11.1 °C -13.6 °C 34693 hPa North 12.9 km/h 23.3 km/h 74 % 0 mm WeatherDisplay:10.37 W/m2
01:00 -11.2 °C -13.7 °C 34693 hPa North 2.6 km/h 23.3 km/h 74 % 0 mm WeatherDisplay:10.37 W/m2
01:05 -11.2 °C -13.7 °C 34693 hPa North 7.7 km/h 25.9 km/h 74 % 0 mm WeatherDisplay:10.37 W/m2
01:10 -11.2 °C -13.6 °C 34693 hPa North 12.9 km/h 31.1 km/h 75 % 0 mm WeatherDisplay:10.37 W/m2
01:15 -11.2 °C -13.6 °C 34693 hPa North 15.6 km/h 31.1 km/h 75 % 0 mm WeatherDisplay:10.37 W/m2
01:20 -11.3 °C -13.6 °C 34689.6 hPa North 7.7 km/h 31.1 km/h 76 % 0 mm WeatherDisplay:10.37 W/m2
01:25 -11.3 °C -13.6 °C 34689.6 hPa North 7.7 km/h 25.9 km/h 76 % 0 mm WeatherDisplay:10.37 W/m2
01:30 -11.3 °C -13.4 °C 34689.6 hPa North 18.2 km/h 36.2 km/h 77 % 0 mm WeatherDisplay:10.37 W/m2
01:35 -11.3 °C -13.4 °C 34689.6 hPa North 15.6 km/h 36.2 km/h 77 % 0 mm WeatherDisplay:10.37 W/m2
01:40 -11.3 °C -13.4 °C 34686.2 hPa North 15.6 km/h 44.1 km/h 78 % 0 mm WeatherDisplay:10.37 W/m2
01:45 -11.3 °C -13.4 °C 34682.8 hPa North 18.2 km/h 36.2 km/h 78 % 0 mm WeatherDisplay:10.37 W/m2
01:50 -11.3 °C -13.4 °C 34686.2 hPa North 18.2 km/h 33.6 km/h 78 % 0 mm WeatherDisplay:10.37 W/m2
01:55 -11.3 °C -13.3 °C 34682.8 hPa North 20.8 km/h 33.6 km/h 79 % 0 mm WeatherDisplay:10.37 W/m2
02:00 -11.3 °C -13.3 °C 34682.8 hPa North 23.3 km/h 33.6 km/h 79 % 0 mm WeatherDisplay:10.37 W/m2
02:05 -11.3 °C -13.3 °C 34682.8 hPa North 20.8 km/h 33.6 km/h 79 % 0 mm WeatherDisplay:10.37 W/m2
02:10 -11.3 °C -13.3 °C 34682.8 hPa North 20.8 km/h 44.1 km/h 79 % 0 mm WeatherDisplay:10.37 W/m2
02:15 -11.3 °C -13.3 °C 34682.8 hPa North 20.8 km/h 41.4 km/h 79 % 0 mm WeatherDisplay:10.37 W/m2
02:20 -11.3 °C -13.2 °C 34682.8 hPa North 18.2 km/h 41.4 km/h 79 % 0 mm WeatherDisplay:10.37 W/m2
02:25 -11.3 °C -13.3 °C 34686.2 hPa North 18.2 km/h 41.4 km/h 79 % 0 mm WeatherDisplay:10.37 W/m2
02:30 -11.3 °C -13.3 °C 34686.2 hPa North 18.2 km/h 38.8 km/h 79 % 0 mm WeatherDisplay:10.37 W/m2
02:35 -11.3 °C -13.3 °C 34686.2 hPa North 18.2 km/h 36.2 km/h 79 % 0 mm WeatherDisplay:10.37 W/m2
02:40 -11.3 °C -13.3 °C 34686.2 hPa North 18.2 km/h 44.1 km/h 79 % 0 mm WeatherDisplay:10.37 W/m2
02:45 -11.3 °C -13.2 °C 34686.2 hPa North 20.8 km/h 44.1 km/h 80 % 0 mm WeatherDisplay:10.37 W/m2
02:50 -11.3 °C -13.2 °C 34686.2 hPa North 20.8 km/h 44.1 km/h 80 % 0 mm WeatherDisplay:10.37 W/m2
02:55 -11.3 °C -13.2 °C 34686.2 hPa North 18.2 km/h 33.6 km/h 80 % 0 mm WeatherDisplay:10.37 W/m2
03:00 -11.3 °C -13.2 °C 34686.2 hPa North 20.8 km/h 41.4 km/h 80 % 0 mm WeatherDisplay:10.37 W/m2
03:05 -11.3 °C -13.2 °C 34686.2 hPa North 20.8 km/h 38.8 km/h 80 % 0 mm WeatherDisplay:10.37 W/m2
03:10 -11.3 °C -13.2 °C 34686.2 hPa North 15.6 km/h 44.1 km/h 80 % 0 mm WeatherDisplay:10.37 W/m2
03:15 -11.3 °C -13.2 °C 34682.8 hPa North 20.8 km/h 36.2 km/h 80 % 0 mm WeatherDisplay:10.37 W/m2
03:20 -11.3 °C -13.2 °C 34682.8 hPa North 15.6 km/h 33.6 km/h 80 % 0 mm WeatherDisplay:10.37 W/m2
03:25 -11.3 °C -13.2 °C 34679.4 hPa North 18.2 km/h 31.1 km/h 80 % 0 mm WeatherDisplay:10.37 W/m2
03:30 -11.3 °C -13.2 °C 34679.4 hPa North 18.2 km/h 36.2 km/h 80 % 0 mm WeatherDisplay:10.37 W/m2
03:35 -11.3 °C -13.2 °C 34679.4 hPa North 18.2 km/h 38.8 km/h 80 % 0 mm WeatherDisplay:10.37 W/m2
03:40 -11.3 °C -13.2 °C 34679.4 hPa North 18.2 km/h 38.8 km/h 80 % 0 mm WeatherDisplay:10.37 W/m2
03:45 -11.3 °C -13.2 °C 34682.8 hPa North 18.2 km/h 46.7 km/h 80 % 0 mm WeatherDisplay:10.37 W/m2
03:50 -11.3 °C -13.2 °C 34679.4 hPa North 20.8 km/h 46.7 km/h 79 % 0 mm WeatherDisplay:10.37 W/m2
03:55 -11.3 °C -13.2 °C 34679.4 hPa North 18.2 km/h 33.6 km/h 80 % 0 mm WeatherDisplay:10.37 W/m2
04:00 -11.3 °C -13.2 °C 34679.4 hPa North 12.9 km/h 28.5 km/h 79 % 0 mm WeatherDisplay:10.37 W/m2
04:05 -11.3 °C -13.2 °C 34676 hPa North 18.2 km/h 41.4 km/h 79 % 0 mm WeatherDisplay:10.37 W/m2
04:10 -11.3 °C -13.2 °C 34676 hPa North 20.8 km/h 38.8 km/h 79 % 0 mm WeatherDisplay:10.37 W/m2
04:15 -11.3 °C -13.2 °C 34676 hPa North 20.8 km/h 36.2 km/h 80 % 0 mm WeatherDisplay:10.37 W/m2
04:20 -11.3 °C -13.2 °C 34676 hPa North 18.2 km/h 33.6 km/h 79 % 0 mm WeatherDisplay:10.37 W/m2
04:25 -11.3 °C -13.2 °C 34676 hPa North 20.8 km/h 38.8 km/h 80 % 0 mm WeatherDisplay:10.37 W/m2
04:30 -11.3 °C -13.2 °C 34672.6 hPa North 23.3 km/h 41.4 km/h 80 % 0 mm WeatherDisplay:10.37 W/m2
04:35 -11.3 °C -13.2 °C 34669.3 hPa North 23.3 km/h 51.8 km/h 80 % 0 mm WeatherDisplay:10.37 W/m2
04:40 -11.3 °C -13.2 °C 34669.3 hPa North 23.3 km/h 46.7 km/h 80 % 0 mm WeatherDisplay:10.37 W/m2
04:45 -11.3 °C -13.2 °C 34665.9 hPa North 20.8 km/h 51.8 km/h 80 % 0 mm WeatherDisplay:10.37 W/m2
04:50 -11.3 °C -13.2 °C 34665.9 hPa North 20.8 km/h 36.2 km/h 80 % 0 mm WeatherDisplay:10.37 W/m2
04:55 -11.3 °C -13.2 °C 34665.9 hPa North 15.6 km/h 36.2 km/h 80 % 0 mm WeatherDisplay:10.37 W/m2
05:00 -11.3 °C -13.2 °C 34665.9 hPa North 23.3 km/h 38.8 km/h 80 % 0 mm WeatherDisplay:10.37 W/m2
05:05 -11.4 °C -13.2 °C 34665.9 hPa North 20.8 km/h 44.1 km/h 80 % 0 mm WeatherDisplay:10.37 W/m2
05:10 -11.4 °C -13.2 °C 34665.9 hPa North 18.2 km/h 38.8 km/h 80 % 0 mm WeatherDisplay:10.37 W/m2
05:15 -11.4 °C -13.3 °C 34662.5 hPa North 18.2 km/h 38.8 km/h 80 % 0 mm WeatherDisplay:10.37 W/m2
05:20 -11.4 °C -13.3 °C 34659.1 hPa North 7.7 km/h 36.2 km/h 80 % 0 mm WeatherDisplay:10.37 W/m2
05:25 -11.4 °C -13.3 °C 34659.1 hPa North 18.2 km/h 31.1 km/h 80 % 0 mm WeatherDisplay:10.37 W/m2
05:30 -11.4 °C -13.3 °C 34659.1 hPa North 12.9 km/h 33.6 km/h 80 % 0 mm WeatherDisplay:10.37 W/m2
05:35 -11.5 °C -13.3 °C 34659.1 hPa North 12.9 km/h 25.9 km/h 80 % 0 mm WeatherDisplay:10.37 W/m2
05:40 -11.5 °C -13.3 °C 34659.1 hPa North 12.9 km/h 31.1 km/h 80 % 0 mm WeatherDisplay:10.37 W/m2
05:45 -11.5 °C -13.3 °C 34662.5 hPa North 12.9 km/h 31.1 km/h 80 % 0 mm WeatherDisplay:10.37 W/m2
05:50 -11.5 °C -13.3 °C 34662.5 hPa North 12.9 km/h 28.5 km/h 80 % 0 mm WeatherDisplay:10.37 W/m2
05:55 -11.5 °C -13.4 °C 34662.5 hPa North 12.9 km/h 25.9 km/h 80 % 0 mm WeatherDisplay:10.37 W/m2
06:00 -11.5 °C -13.4 °C 34662.5 hPa North 12.9 km/h 23.3 km/h 80 % 0 mm WeatherDisplay:10.37 W/m2
06:05 -11.5 °C -13.4 °C 34662.5 hPa North 15.6 km/h 31.1 km/h 80 % 0 mm WeatherDisplay:10.37 W/m2
06:10 -11.5 °C -13.4 °C 34665.9 hPa North 7.7 km/h 31.1 km/h 80 % 0 mm WeatherDisplay:10.37 W/m2
06:15 -11.5 °C -13.4 °C 34665.9 hPa North 12.9 km/h 31.1 km/h 80 % 0 mm WeatherDisplay:10.37 W/m2
06:20 -11.6 °C -13.4 °C 34662.5 hPa North 12.9 km/h 20.8 km/h 80 % 0 mm WeatherDisplay:10.37 W/m2
06:25 -11.6 °C -13.4 °C 34662.5 hPa North 12.9 km/h 20.8 km/h 80 % 0 mm WeatherDisplay:10.37 W/m2
06:30 -11.6 °C -13.4 °C 34665.9 hPa North 7.7 km/h 31.1 km/h 80 % 0 mm WeatherDisplay:10.37 W/m2
06:35 -11.6 °C -13.4 °C 34665.9 hPa North 12.9 km/h 28.5 km/h 80 % 0 mm WeatherDisplay:10.37 W/m2
06:40 -11.6 °C -13.4 °C 34665.9 hPa North 15.6 km/h 31.1 km/h 80 % 0 mm WeatherDisplay:10.37 W/m2
06:45 -11.6 °C -13.4 °C 34665.9 hPa North 12.9 km/h 23.3 km/h 80 % 0 mm WeatherDisplay:10.37 W/m2
06:50 -11.6 °C -13.4 °C 34665.9 hPa North 7.7 km/h 31.1 km/h 80 % 0 mm WeatherDisplay:10.37 W/m2
06:55 -11.6 °C -13.4 °C 34669.3 hPa North 12.9 km/h 25.9 km/h 80 % 0 mm WeatherDisplay:10.37 W/m2
07:00 -11.6 °C -13.4 °C 34669.3 hPa North 12.9 km/h 25.9 km/h 80 % 0 mm WeatherDisplay:10.37 W/m2
07:05 -11.6 °C -13.4 °C 34669.3 hPa North 5.1 km/h 23.3 km/h 80 % 0 mm WeatherDisplay:10.37 W/m2
07:10 -11.6 °C -13.4 °C 34669.3 hPa North 7.7 km/h 18.2 km/h 80 % 0 mm WeatherDisplay:10.37 W/m2
07:15 -11.6 °C -13.4 °C 34672.6 hPa North 7.7 km/h 18.2 km/h 80 % 0 mm WeatherDisplay:10.37 W/m2
07:20 -11.6 °C -13.5 °C 34672.6 hPa North 7.7 km/h 25.9 km/h 80 % 0 mm WeatherDisplay:10.37 W/m2
07:30 -11.6 °C -13.4 °C 34676 hPa North 7.7 km/h 23.3 km/h 81 % 0 mm WeatherDisplay:10.37 W/m2
07:35 -11.7 °C -13.4 °C 34676 hPa North 12.9 km/h 23.3 km/h 81 % 0 mm WeatherDisplay:10.37 W/m2
07:40 -11.7 °C -13.4 °C 34676 hPa North 7.7 km/h 31.1 km/h 81 % 0 mm WeatherDisplay:10.37 W/m2
07:45 -11.6 °C -13.4 °C 34679.4 hPa North 7.7 km/h 25.9 km/h 81 % 0 mm WeatherDisplay:10.37 W/m2
07:50 -11.6 °C -13.4 °C 34682.8 hPa North 12.9 km/h 23.3 km/h 81 % 0 mm WeatherDisplay:10.37 W/m2
07:55 -11.6 °C -13.3 °C 34682.8 hPa North 12.9 km/h 31.1 km/h 81 % 0 mm WeatherDisplay:10.37 W/m2
08:00 -11.6 °C -13.3 °C 34682.8 hPa North 12.9 km/h 20.8 km/h 81 % 0 mm WeatherDisplay:10.37 W/m2
08:05 -11.6 °C -13.3 °C 34686.2 hPa North 7.7 km/h 23.3 km/h 81 % 0 mm WeatherDisplay:10.37 W/m2
08:10 -11.5 °C -13.3 °C 34686.2 hPa North 12.9 km/h 31.1 km/h 81 % 0 mm WeatherDisplay:10.37 W/m2
08:15 -11.5 °C -13.3 °C 34682.8 hPa North 12.9 km/h 20.8 km/h 80 % 0 mm WeatherDisplay:10.37 W/m2
08:20 -11.4 °C -13.3 °C 34682.8 hPa North 12.9 km/h 25.9 km/h 80 % 0 mm WeatherDisplay:10.37 W/m2
08:25 -11.4 °C -13.2 °C 34686.2 hPa North 7.7 km/h 31.1 km/h 80 % 0 mm WeatherDisplay:10.37 W/m2
08:30 -11.3 °C -13.2 °C 34686.2 hPa North 7.7 km/h 31.1 km/h 80 % 0 mm WeatherDisplay:10.37 W/m2
08:35 -11.3 °C -13.3 °C 34686.2 hPa North 15.6 km/h 31.1 km/h 79 % 0 mm WeatherDisplay:10.37 W/m2
08:40 -11.3 °C -13.2 °C 34686.2 hPa North 15.6 km/h 33.6 km/h 79 % 0 mm WeatherDisplay:10.37 W/m2
08:45 -11.2 °C -13.3 °C 34686.2 hPa North 18.2 km/h 36.2 km/h 78 % 0 mm WeatherDisplay:10.37 W/m2
08:50 -11.2 °C -13.3 °C 34686.2 hPa North 15.6 km/h 31.1 km/h 78 % 0 mm WeatherDisplay:10.37 W/m2
08:55 -11.2 °C -13.2 °C 34689.6 hPa North 12.9 km/h 23.3 km/h 78 % 0 mm WeatherDisplay:10.37 W/m2
09:00 -11.1 °C -13.2 °C 34686.2 hPa North 12.9 km/h 31.1 km/h 78 % 0 mm WeatherDisplay:10.37 W/m2
09:05 -11 °C -13.2 °C 34689.6 hPa North 15.6 km/h 31.1 km/h 77 % 0 mm WeatherDisplay:10.37 W/m2
09:10 -11 °C -13.2 °C 34693 hPa North 15.6 km/h 31.1 km/h 77 % 0 mm WeatherDisplay:10.37 W/m2
09:15 -10.9 °C -13.1 °C 34693 hPa North 7.7 km/h 23.3 km/h 77 % 0 mm WeatherDisplay:10.37 W/m2
09:20 -10.9 °C -13.2 °C 34693 hPa North 12.9 km/h 28.5 km/h 76 % 0 mm WeatherDisplay:10.37 W/m2
09:25 -10.8 °C -13.1 °C 34693 hPa North 12.9 km/h 20.8 km/h 76 % 0 mm WeatherDisplay:10.37 W/m2
09:30 -10.8 °C -13.2 °C 34693 hPa North 12.9 km/h 31.1 km/h 75 % 0 mm WeatherDisplay:10.37 W/m2
09:35 -10.7 °C -13.1 °C 34696.3 hPa North 7.7 km/h 20.8 km/h 75 % 0 mm WeatherDisplay:10.37 W/m2
09:40 -10.7 °C -13.2 °C 34696.3 hPa North 12.9 km/h 25.9 km/h 74 % 0 mm WeatherDisplay:10.37 W/m2
09:45 -10.6 °C -13.2 °C 34696.3 hPa North 12.9 km/h 20.8 km/h 74 % 0 mm WeatherDisplay:10.37 W/m2
09:50 -10.5 °C -13.1 °C 34696.3 hPa North 7.7 km/h 20.8 km/h 74 % 0 mm WeatherDisplay:10.37 W/m2
09:55 -10.4 °C -13.1 °C 34699.7 hPa North 7.7 km/h 18.2 km/h 73 % 0 mm WeatherDisplay:10.37 W/m2
10:00 -10.3 °C -12.9 °C 34699.7 hPa North 5.1 km/h 12.9 km/h 73 % 0 mm WeatherDisplay:10.37 W/m2
10:05 -10.2 °C -12.9 °C 34696.3 hPa North 7.7 km/h 18.2 km/h 73 % 0 mm WeatherDisplay:10.37 W/m2
10:10 -10.2 °C -12.8 °C 34699.7 hPa North 5.1 km/h 18.2 km/h 73 % 0 mm WeatherDisplay:10.37 W/m2
10:15 -10.1 °C -12.8 °C 34699.7 hPa North 12.9 km/h 25.9 km/h 72 % 0 mm WeatherDisplay:10.37 W/m2
10:20 -10.1 °C -12.8 °C 34696.3 hPa North 7.7 km/h 20.8 km/h 72 % 0 mm WeatherDisplay:10.37 W/m2
10:25 -10.1 °C -12.9 °C 34696.3 hPa North 12.9 km/h 25.9 km/h 71 % 0 mm WeatherDisplay:10.37 W/m2
10:30 -9.9 °C -12.8 °C 34696.3 hPa North 7.7 km/h 23.3 km/h 71 % 0 mm WeatherDisplay:10.37 W/m2
10:35 -9.9 °C -12.8 °C 34696.3 hPa North 5.1 km/h 20.8 km/h 71 % 0 mm WeatherDisplay:10.37 W/m2
10:40 -9.8 °C -12.7 °C 34696.3 hPa North 12.9 km/h 23.3 km/h 71 % 0 mm WeatherDisplay:10.37 W/m2
10:45 -9.7 °C -12.7 °C 34693 hPa North 7.7 km/h 23.3 km/h 70 % 0 mm WeatherDisplay:10.37 W/m2
10:50 -9.6 °C -12.7 °C 34693 hPa North 15.6 km/h 25.9 km/h 69 % 0 mm WeatherDisplay:10.37 W/m2
10:55 -9.6 °C -12.7 °C 34693 hPa North 7.7 km/h 31.1 km/h 69 % 0 mm WeatherDisplay:10.37 W/m2
11:00 -9.4 °C -12.7 °C 34689.6 hPa North 12.9 km/h 31.1 km/h 68 % 0 mm WeatherDisplay:10.37 W/m2
11:05 -9.4 °C -12.8 °C 34689.6 hPa North 18.2 km/h 31.1 km/h 67 % 0 mm WeatherDisplay:10.37 W/m2
11:10 -9.4 °C -12.8 °C 34689.6 hPa North 7.7 km/h 33.6 km/h 67 % 0 mm WeatherDisplay:10.37 W/m2
11:15 -9.3 °C -12.8 °C 34686.2 hPa North 18.2 km/h 41.4 km/h 66 % 0 mm WeatherDisplay:10.37 W/m2
11:20 -9.3 °C -12.8 °C 34689.6 hPa North 12.9 km/h 33.6 km/h 66 % 0 mm WeatherDisplay:10.37 W/m2
11:25 -9.3 °C -12.8 °C 34689.6 hPa North 18.2 km/h 38.8 km/h 66 % 0 mm WeatherDisplay:10.37 W/m2
11:30 -9.2 °C -13 °C 34689.6 hPa North 23.3 km/h 44.1 km/h 64 % 0 mm WeatherDisplay:10.37 W/m2
11:35 -9.2 °C -12.9 °C 34689.6 hPa North 15.6 km/h 41.4 km/h 64 % 0 mm WeatherDisplay:10.37 W/m2
11:40 -9.1 °C -12.9 °C 34689.6 hPa North 12.9 km/h 38.8 km/h 64 % 0 mm WeatherDisplay:10.37 W/m2
11:45 -9.1 °C -12.8 °C 34686.2 hPa North 12.9 km/h 38.8 km/h 64 % 0 mm WeatherDisplay:10.37 W/m2
11:50 -9.1 °C -12.9 °C 34682.8 hPa North 15.6 km/h 36.2 km/h 63 % 0 mm WeatherDisplay:10.37 W/m2
11:55 -9.1 °C -13 °C 34682.8 hPa North 25.9 km/h 54.4 km/h 63 % 0 mm WeatherDisplay:10.37 W/m2
12:00 -9.2 °C -13.1 °C 34682.8 hPa North 23.3 km/h 51.8 km/h 63 % 0 mm WeatherDisplay:10.37 W/m2
12:05 -9.2 °C -12.9 °C 34679.4 hPa North 15.6 km/h 38.8 km/h 64 % 0 mm WeatherDisplay:10.37 W/m2
12:10 -9.2 °C -12.9 °C 34679.4 hPa North 20.8 km/h 38.8 km/h 64 % 0 mm WeatherDisplay:10.37 W/m2
12:15 -9.1 °C -13.1 °C 34679.4 hPa North 20.8 km/h 44.1 km/h 62 % 0 mm WeatherDisplay:10.37 W/m2
12:20 -9 °C -13.1 °C 34679.4 hPa North 18.2 km/h 33.6 km/h 62 % 0 mm WeatherDisplay:10.37 W/m2
12:25 -9 °C -13.2 °C 34679.4 hPa North 20.8 km/h 51.8 km/h 61 % 0 mm WeatherDisplay:10.37 W/m2
12:30 -9 °C -13.3 °C 34676 hPa North 20.8 km/h 36.2 km/h 60 % 0 mm WeatherDisplay:10.37 W/m2
12:40 -8.8 °C -13.1 °C 34669.3 hPa North 15.6 km/h 44.1 km/h 60 % 0 mm WeatherDisplay:10.37 W/m2
12:45 -8.7 °C -13.2 °C 34669.3 hPa North 18.2 km/h 44.1 km/h 59 % 0 mm WeatherDisplay:10.37 W/m2
12:50 -8.7 °C -13.3 °C 34665.9 hPa North 15.6 km/h 38.8 km/h 58 % 0 mm WeatherDisplay:10.37 W/m2
12:55 -8.7 °C -13.3 °C 34662.5 hPa North 20.8 km/h 51.8 km/h 58 % 0 mm WeatherDisplay:10.37 W/m2
13:00 -8.7 °C -13.3 °C 34665.9 hPa North 18.2 km/h 46.7 km/h 58 % 0 mm WeatherDisplay:10.37 W/m2
13:05 -8.7 °C -13.3 °C 34662.5 hPa North 23.3 km/h 44.1 km/h 58 % 0 mm WeatherDisplay:10.37 W/m2
13:10 -8.7 °C -13.2 °C 34662.5 hPa North 23.3 km/h 38.8 km/h 59 % 0 mm WeatherDisplay:10.37 W/m2
13:15 -8.7 °C -13.3 °C 34659.1 hPa North 20.8 km/h 38.8 km/h 58 % 0 mm WeatherDisplay:10.37 W/m2
13:20 -8.6 °C -13.5 °C 34659.1 hPa North 23.3 km/h 51.8 km/h 56 % 0 mm WeatherDisplay:10.37 W/m2
13:25 -8.5 °C -13.6 °C 34659.1 hPa North 18.2 km/h 51.8 km/h 55 % 0 mm WeatherDisplay:10.37 W/m2
13:30 -8.5 °C -13.6 °C 34659.1 hPa North 12.9 km/h 51.8 km/h 55 % 0 mm WeatherDisplay:10.37 W/m2
13:35 -8.4 °C -13.5 °C 34659.1 hPa North 18.2 km/h 46.7 km/h 55 % 0 mm WeatherDisplay:10.37 W/m2
13:40 -8.4 °C -13.7 °C 34655.7 hPa North 23.3 km/h 44.1 km/h 54 % 0 mm WeatherDisplay:10.37 W/m2
13:45 -8.4 °C -13.4 °C 34652.3 hPa North 23.3 km/h 41.4 km/h 56 % 0 mm WeatherDisplay:10.37 W/m2
13:50 -8.6 °C -13.2 °C 34648.9 hPa North 23.3 km/h 44.1 km/h 58 % 0 mm WeatherDisplay:10.37 W/m2
13:55 -8.6 °C -13.1 °C 34648.9 hPa North 23.3 km/h 44.1 km/h 59 % 0 mm WeatherDisplay:10.37 W/m2
14:00 -8.6 °C -13.1 °C 34645.6 hPa North 18.2 km/h 44.1 km/h 59 % 0 mm WeatherDisplay:10.37 W/m2
14:05 -8.7 °C -13.1 °C 34642.2 hPa North 25.9 km/h 46.7 km/h 59 % 0 mm WeatherDisplay:10.37 W/m2
14:10 -8.7 °C -13 °C 34642.2 hPa North 23.3 km/h 51.8 km/h 60 % 0 mm WeatherDisplay:10.37 W/m2
14:15 -8.7 °C -13 °C 34638.8 hPa North 25.9 km/h 51.8 km/h 60 % 0 mm WeatherDisplay:10.37 W/m2
14:20 -8.6 °C -13.1 °C 34635.4 hPa North 20.8 km/h 44.1 km/h 59 % 0 mm WeatherDisplay:10.37 W/m2
14:25 -8.6 °C -13.2 °C 34628.6 hPa North 31.1 km/h 57 km/h 58 % 0 mm WeatherDisplay:10.37 W/m2
14:30 -8.6 °C -13 °C 34628.6 hPa North 25.9 km/h 54.4 km/h 59 % 0 mm WeatherDisplay:10.37 W/m2
14:35 -8.7 °C -13.2 °C 34621.9 hPa North 31.1 km/h 54.4 km/h 59 % 0 mm WeatherDisplay:10.37 W/m2
14:40 -8.7 °C -13 °C 34621.9 hPa North 25.9 km/h 59.5 km/h 60 % 0 mm WeatherDisplay:10.37 W/m2
14:45 -8.7 °C -13 °C 34618.5 hPa North 33.6 km/h 57 km/h 60 % 0 mm WeatherDisplay:10.37 W/m2
14:50 -8.8 °C -13.1 °C 34618.5 hPa North 31.1 km/h 67.3 km/h 60 % 0 mm WeatherDisplay:10.37 W/m2
14:55 -8.8 °C -13 °C 34618.5 hPa North 31.1 km/h 59.5 km/h 61 % 0 mm WeatherDisplay:10.37 W/m2
15:00 -8.9 °C -12.9 °C 34618.5 hPa North 25.9 km/h 59.5 km/h 62 % 0 mm WeatherDisplay:10.37 W/m2
15:05 -8.9 °C -12.8 °C 34621.9 hPa North 31.1 km/h 57 km/h 63 % 0 mm WeatherDisplay:10.37 W/m2
15:10 -8.9 °C -12.9 °C 34621.9 hPa North 25.9 km/h 46.7 km/h 63 % 0 mm WeatherDisplay:10.37 W/m2
15:15 -9.1 °C -12.8 °C 34621.9 hPa North 31.1 km/h 54.4 km/h 64 % 0 mm WeatherDisplay:10.37 W/m2
15:20 -9 °C -13.1 °C 34618.5 hPa North 33.6 km/h 51.8 km/h 62 % 0 mm WeatherDisplay:10.37 W/m2
15:25 -8.9 °C -13 °C 34618.5 hPa North 31.1 km/h 59.5 km/h 62 % 0 mm WeatherDisplay:10.37 W/m2
15:30 -9 °C -12.9 °C 34615.1 hPa North 23.3 km/h 51.8 km/h 63 % 0 mm WeatherDisplay:10.37 W/m2
15:35 -9.1 °C -12.7 °C 34621.9 hPa North 18.2 km/h 44.1 km/h 65 % 0 mm WeatherDisplay:10.37 W/m2
15:40 -9.3 °C -12.7 °C 34618.5 hPa North 18.2 km/h 59.5 km/h 67 % 0 mm WeatherDisplay:10.37 W/m2
15:45 -9.3 °C -12.7 °C 34618.5 hPa North 23.3 km/h 41.4 km/h 67 % 0 mm WeatherDisplay:10.37 W/m2
15:50 -9.3 °C -12.8 °C 34618.5 hPa North 25.9 km/h 41.4 km/h 66 % 0 mm WeatherDisplay:10.37 W/m2
15:55 -9.2 °C -12.9 °C 34618.5 hPa North 20.8 km/h 44.1 km/h 65 % 0 mm WeatherDisplay:10.37 W/m2
16:05 -9.2 °C -12.9 °C 34611.7 hPa North 23.3 km/h 51.8 km/h 65 % 0 mm WeatherDisplay:10.37 W/m2
16:10 -9.2 °C -12.8 °C 34611.7 hPa North 31.1 km/h 51.8 km/h 65 % 0 mm WeatherDisplay:10.37 W/m2
16:15 -9.3 °C -13 °C 34608.3 hPa North 33.6 km/h 57 km/h 65 % 0 mm WeatherDisplay:10.37 W/m2
16:20 -9.4 °C -12.9 °C 34608.3 hPa North 23.3 km/h 51.8 km/h 66 % 0 mm WeatherDisplay:10.37 W/m2
16:25 -9.4 °C -12.9 °C 34604.9 hPa North 33.6 km/h 54.4 km/h 66 % 0 mm WeatherDisplay:10.37 W/m2
16:30 -9.3 °C -12.9 °C 34604.9 hPa North 31.1 km/h 51.8 km/h 66 % 0 mm WeatherDisplay:10.37 W/m2
16:35 -9.3 °C -12.9 °C 34604.9 hPa North 23.3 km/h 51.8 km/h 65 % 0 mm WeatherDisplay:10.37 W/m2
16:40 -9.3 °C -12.9 °C 34604.9 hPa North 23.3 km/h 51.8 km/h 65 % 0 mm WeatherDisplay:10.37 W/m2
Meteocoruña
Agradecimientos a Weather Underground - 2.5 mb